START_TIME,STEP,MOV.,M15,t_acc.,M20,t_acc.
1979-07-29 18:00:42.990 ,0,1,0.,24.0,0.,24.0
1979-07-29 18:01:06.990 ,4,1,0.,24.0,0.,24.0
1979-07-29 18:01:30.990 ,7,1,0.,24.0,0.,24.0
1979-07-29 18:01:54.990 ,3,1,0.,24.0,0.,24.0
1979-07-29 18:02:18.990 ,0,1,0.,24.0,0.,24.0
1979-07-29 18:02:42.990 ,4,1,0.,24.0,0.,24.0
1979-07-29 18:03:06.990 ,7,1,0.,24.0,0.,24.0
1979-07-29 18:03:30.990 ,3,1,0.,24.0,0.,24.0
1979-07-29 18:03:54.990 ,0,1,0.,24.0,0.,24.0
1979-07-29 18:04:18.990 ,4,1,0.,24.0,0.,24.0
1979-07-29 18:04:42.990 ,7,1,0.,24.0,0.,24.0
1979-07-29 18:05:06.990 ,3,1,0.,24.0,0.,24.0
1979-07-29 18:05:30.990 ,0,1,0.,24.0,0.,24.0
1979-07-29 18:05:54.990 ,0,0,0.,24.0,0.,24.0
1979-07-29 18:06:18.990 ,0,0,0.,24.0,0.,24.0
1979-07-29 18:06:42.990 ,5,1,0.,24.0,0.,24.0
1979-07-29 18:07:06.990 ,5,0,0.,24.0,0.,24.0
1979-07-29 18:07:30.990 ,4,1,0.,24.0,0.,24.0
1979-07-29 18:07:54.990 ,4,0,0.,24.0,0.,24.0
1979-07-29 18:08:18.990 ,3,1,0.,24.0,0.,24.0
1979-07-29 18:08:42.990 ,3,0,0.,24.0,0.,24.0
1979-07-29 18:09:06.990 ,2,1,0.,24.0,0.,24.0
1979-07-29 18:09:30.990 ,2,0,0.,24.0,0.,24.0
1979-07-29 18:09:54.990 ,1,1,0.,24.0,0.,24.0
1979-07-29 18:10:18.990 ,1,0,0.,24.0,0.,24.0
1979-07-29 18:10:42.990 ,0,1,0.,24.0,0.,24.0
1979-07-29 18:11:06.990 ,0,0,0.,24.0,1.,24.0
1979-07-29 18:11:30.990 ,0,1,0.,24.0,0.,24.0
1979-07-29 18:11:54.990 ,0,0,0.,24.0,0.,24.0
1979-07-29 18:12:18.990 ,1,1,0.,24.0,0.,24.0
1979-07-29 18:12:42.990 ,1,0,0.,24.0,0.,24.0
1979-07-29 18:13:06.990 ,2,1,0.,24.0,0.,24.0
1979-07-29 18:13:30.990 ,2,0,0.,24.0,0.,24.0
1979-07-29 18:13:54.990 ,3,1,0.,24.0,0.,24.0
1979-07-29 18:14:18.990 ,3,0,0.,24.0,0.,24.0
1979-07-29 18:14:42.990 ,4,1,0.,24.0,0.,24.0
1979-07-29 18:15:06.990 ,4,0,0.,24.0,0.,24.0
1979-07-29 18:15:30.990 ,5,1,0.,24.0,0.,24.0
1979-07-29 18:15:54.990 ,5,0,0.,24.0,0.,24.0
1979-07-29 18:16:18.990 ,6,1,0.,24.0,0.,24.0
1979-07-29 18:16:42.990 ,6,0,0.,24.0,0.,24.0
1979-07-29 18:17:06.990 ,7,1,0.,24.0,0.,24.0
1979-07-29 18:17:30.990 ,7,0,0.,24.0,0.,24.0
1979-07-29 18:17:54.990 ,7,1,0.,24.0,0.,24.0
1979-07-29 18:18:18.990 ,7,0,0.,24.0,0.,24.0
1979-07-29 18:18:42.990 ,6,1,0.,24.0,0.,24.0
1979-07-29 18:19:06.990 ,6,0,0.,24.0,0.,24.0
1979-07-29 18:19:30.990 ,5,1,0.,24.0,0.,24.0
1979-07-29 18:19:54.990 ,5,0,0.,24.0,0.,24.0
1979-07-29 18:20:18.990 ,4,1,0.,24.0,0.,24.0
1979-07-29 18:20:42.990 ,4,0,0.,24.0,0.,24.0
1979-07-29 18:21:06.990 ,3,1,0.,24.0,0.,24.0
1979-07-29 18:21:30.990 ,3,0,0.,24.0,0.,24.0
1979-07-29 18:21:54.990 ,2,1,0.,24.0,0.,24.0
1979-07-29 18:22:18.990 ,2,0,0.,24.0,0.,24.0
1979-07-29 18:22:42.990 ,1,1,0.,24.0,0.,24.0
1979-07-29 18:23:06.990 ,1,0,0.,24.0,0.,24.0
1979-07-29 18:23:30.990 ,0,1,0.,24.0,0.,24.0
1979-07-29 18:23:54.990 ,0,0,0.,24.0,0.,24.0
1979-07-29 18:24:18.990 ,0,1,0.,24.0,0.,24.0
1979-07-29 18:24:42.990 ,0,0,0.,24.0,0.,24.0
1979-07-29 18:25:06.990 ,1,1,0.,24.0,0.,24.0
1979-07-29 18:25:30.990 ,1,0,0.,24.0,0.,24.0
1979-07-29 18:25:54.990 ,2,1,0.,24.0,0.,24.0
1979-07-29 18:26:18.990 ,2,0,0.,24.0,0.,24.0
1979-07-29 18:26:42.990 ,3,1,0.,24.0,0.,24.0
1979-07-29 18:27:06.990 ,3,0,0.,24.0,0.,24.0
1979-07-29 18:27:30.990 ,4,1,0.,24.0,0.,24.0
1979-07-29 18:27:54.990 ,4,0,0.,24.0,0.,24.0
1979-07-29 18:28:18.990 ,5,1,0.,24.0,0.,24.0
1979-07-29 18:28:42.990 ,5,0,0.,24.0,0.,24.0
1979-07-29 18:29:06.990 ,6,1,0.,24.0,0.,24.0
1979-07-29 18:29:30.990 ,6,0,0.,24.0,0.,24.0
1979-07-29 18:29:54.990 ,7,1,0.,24.0,0.,24.0
1979-07-29 18:30:18.990 ,7,0,0.,24.0,0.,24.0
1979-07-29 18:30:42.990 ,7,1,0.,24.0,0.,24.0
1979-07-29 18:31:06.990 ,7,0,0.,24.0,0.,24.0
1979-07-29 18:31:30.990 ,6,1,0.,24.0,0.,24.0
1979-07-29 18:31:54.990 ,6,0,0.,24.0,0.,24.0
1979-07-29 18:32:18.990 ,5,1,0.,24.0,0.,24.0
1979-07-29 18:32:42.990 ,5,0,0.,24.0,0.,24.0
1979-07-29 18:33:06.990 ,4,1,0.,24.0,0.,24.0
1979-07-29 18:33:30.990 ,4,0,0.,24.0,0.,24.0
1979-07-29 18:33:54.990 ,3,1,0.,24.0,0.,24.0
1979-07-29 18:34:18.990 ,3,0,0.,24.0,0.,24.0
1979-07-29 18:34:42.990 ,2,1,0.,24.0,0.,24.0
1979-07-29 18:35:06.990 ,2,0,0.,24.0,0.,24.0
1979-07-29 18:35:30.990 ,1,1,0.,24.0,0.,24.0
1979-07-29 18:35:54.990 ,1,0,0.,24.0,0.,24.0
1979-07-29 18:36:18.990 ,0,1,0.,24.0,0.,24.0
1979-07-29 18:36:42.990 ,0,0,0.,24.0,0.,24.0
1979-07-29 18:37:06.990 ,0,1,0.,24.0,0.,24.0
1979-07-29 18:37:30.990 ,0,0,0.,24.0,0.,24.0
1979-07-29 18:37:54.990 ,1,1,0.,24.0,0.,24.0
1979-07-29 18:38:18.990 ,1,0,0.,24.0,0.,24.0
1979-07-29 18:38:42.990 ,2,1,0.,24.0,0.,24.0
1979-07-29 18:39:06.990 ,2,0,0.,24.0,0.,24.0
1979-07-29 18:39:30.990 ,3,1,0.,24.0,0.,24.0
1979-07-29 18:39:54.990 ,0,0,,0,,0
1979-07-29 18:40:20.190 ,4,1,0.,24.0,0.,24.0
1979-07-29 18:40:42.990 ,4,0,0.,24.0,0.,24.0
1979-07-29 18:41:06.990 ,5,1,0.,24.0,0.,24.0
1979-07-29 18:41:30.990 ,5,0,0.,24.0,0.,24.0
1979-07-29 18:41:54.990 ,6,1,0.,24.0,0.,24.0
1979-07-29 18:42:18.990 ,6,0,0.,24.0,0.,24.0
1979-07-29 18:42:42.990 ,7,0,0.,24.0,0.,24.0
1979-07-29 18:43:06.990 ,7,0,0.,24.0,0.,24.0
1979-07-29 18:43:30.990 ,3,1,0.,24.0,0.,24.0
1979-07-29 18:43:54.990 ,0,1,0.,24.0,0.,24.0
1979-07-29 18:44:18.990 ,4,1,0.,24.0,0.,24.0
1979-07-29 18:44:42.990 ,7,1,0.,24.0,0.,24.0
1979-07-29 18:45:06.990 ,3,1,0.,24.0,0.,24.0
1979-07-29 18:45:30.990 ,0,1,0.,24.0,0.,24.0
1979-07-29 18:45:54.990 ,4,1,0.,24.0,0.,24.0
1979-07-29 18:46:18.990 ,7,1,0.,24.0,0.,24.0
1979-07-29 18:46:42.990 ,3,1,0.,24.0,0.,24.0
1979-07-29 18:47:06.990 ,0,1,0.,24.0,0.,24.0
1979-07-29 18:47:30.990 ,4,1,0.,24.0,0.,24.0
1979-07-29 18:47:54.990 ,7,1,0.,24.0,0.,24.0
1979-07-29 18:48:18.990 ,3,1,0.,24.0,0.,24.0
1979-07-29 18:48:42.990 ,0,1,0.,24.0,0.,24.0
1979-07-29 18:49:06.990 ,4,1,0.,24.0,0.,24.0
1979-07-29 18:49:30.990 ,7,1,0.,24.0,0.,24.0
1979-07-29 18:49:54.990 ,0,0,,0,,0
1979-07-29 18:50:18.990 ,0,0,,0,,0
1979-07-29 18:50:54.390 ,0,0,0.,24.0,0.,24.0
1979-07-29 18:51:06.990 ,7,1,0.,24.0,0.,24.0
1979-07-29 18:51:30.990 ,3,1,0.,24.0,0.,24.0
1979-07-29 18:51:54.990 ,0,1,0.,24.0,0.,24.0
1979-07-29 18:52:18.990 ,4,1,0.,24.0,0.,24.0
1979-07-29 18:52:42.990 ,7,1,0.,24.0,0.,24.0
1979-07-29 18:53:06.990 ,3,1,0.,24.0,0.,24.0
1979-07-29 18:53:30.990 ,0,1,0.,24.0,0.,24.0
1979-07-29 18:53:54.990 ,0,0,0.,24.0,0.,24.0
1979-07-29 18:54:18.990 ,0,0,0.,24.0,0.,24.0
1979-07-29 18:54:42.990 ,5,1,0.,24.0,0.,24.0
1979-07-29 18:55:06.990 ,5,0,0.,24.0,0.,24.0
1979-07-29 18:55:30.990 ,4,1,0.,24.0,0.,24.0
1979-07-29 18:55:54.990 ,4,0,0.,24.0,0.,24.0
1979-07-29 18:56:18.990 ,3,1,0.,24.0,0.,24.0
1979-07-29 18:56:42.990 ,3,0,0.,24.0,0.,24.0
1979-07-29 18:57:06.990 ,2,1,0.,24.0,0.,24.0
1979-07-29 18:57:30.990 ,2,0,0.,24.0,0.,24.0
1979-07-29 18:57:54.990 ,1,1,0.,24.0,0.,24.0
1979-07-29 18:58:18.990 ,1,0,0.,24.0,0.,24.0
1979-07-29 18:58:42.990 ,0,1,0.,24.0,0.,24.0
1979-07-29 18:59:06.990 ,0,0,0.,24.0,0.,24.0
1979-07-29 18:59:30.990 ,0,1,0.,24.0,0.,24.0
1979-07-29 18:59:54.990 ,0,0,,0,,0
1979-07-29 19:01:22.590 ,0,0,0.,24.0,0.,24.0
1979-07-29 19:01:30.990 ,0,0,0.,24.0,0.,24.0
1979-07-29 19:01:54.990 ,3,1,0.,24.0,0.,24.0
1979-07-29 19:02:18.990 ,3,0,0.,24.0,0.,24.0
1979-07-29 19:02:42.990 ,4,1,0.,24.0,0.,24.0
1979-07-29 19:03:06.990 ,4,0,0.,24.0,0.,24.0
1979-07-29 19:03:30.990 ,5,1,0.,24.0,0.,24.0
1979-07-29 19:03:54.990 ,5,0,0.,24.0,0.,24.0
1979-07-29 19:04:18.990 ,6,1,0.,24.0,0.,24.0
1979-07-29 19:04:42.990 ,6,0,0.,24.0,0.,24.0
1979-07-29 19:05:06.990 ,7,1,0.,24.0,0.,24.0
1979-07-29 19:05:30.990 ,7,0,0.,24.0,0.,24.0
1979-07-29 19:05:54.990 ,7,1,0.,24.0,0.,24.0
1979-07-29 19:06:18.990 ,7,0,0.,24.0,0.,24.0
1979-07-29 19:06:42.990 ,6,1,0.,24.0,0.,24.0
1979-07-29 19:07:06.990 ,6,0,0.,24.0,0.,24.0
1979-07-29 19:07:30.990 ,5,1,0.,24.0,0.,24.0
1979-07-29 19:07:54.990 ,5,0,0.,24.0,0.,24.0
1979-07-29 19:08:18.990 ,4,1,0.,24.0,0.,24.0
1979-07-29 19:08:42.990 ,4,0,0.,24.0,0.,24.0
1979-07-29 19:09:06.990 ,3,1,0.,24.0,0.,24.0
1979-07-29 19:09:30.990 ,3,0,0.,24.0,0.,24.0
1979-07-29 19:09:54.990 ,2,1,0.,24.0,0.,24.0
1979-07-29 19:10:18.990 ,2,0,0.,24.0,0.,24.0
1979-07-29 19:10:42.990 ,1,1,0.,24.0,0.,24.0
1979-07-29 19:11:06.990 ,1,0,0.,24.0,0.,24.0
1979-07-29 19:11:30.990 ,0,1,0.,24.0,0.,24.0
1979-07-29 19:11:54.990 ,0,0,0.,24.0,0.,24.0
1979-07-29 19:12:18.990 ,0,1,0.,24.0,0.,24.0
1979-07-29 19:12:42.990 ,0,0,0.,24.0,0.,24.0
1979-07-29 19:13:06.990 ,1,1,0.,24.0,0.,24.0
1979-07-29 19:13:30.990 ,1,0,0.,24.0,0.,24.0
1979-07-29 19:13:54.990 ,2,1,0.,24.0,0.,24.0
1979-07-29 19:14:18.990 ,2,0,0.,24.0,0.,24.0
1979-07-29 19:14:42.990 ,3,1,0.,24.0,0.,24.0
1979-07-29 19:15:06.990 ,3,0,0.,24.0,0.,24.0
1979-07-29 19:15:30.990 ,4,1,0.,24.0,0.,24.0
1979-07-29 19:15:54.990 ,4,0,0.,24.0,0.,24.0
1979-07-29 19:16:18.990 ,5,1,0.,24.0,0.,24.0
1979-07-29 19:16:42.990 ,5,0,0.,24.0,0.,24.0
1979-07-29 19:17:06.990 ,6,1,0.,24.0,0.,24.0
1979-07-29 19:17:30.990 ,6,0,0.,24.0,0.,24.0
1979-07-29 19:17:54.990 ,7,1,0.,24.0,0.,24.0
1979-07-29 19:18:18.990 ,7,0,0.,24.0,0.,24.0
1979-07-29 19:18:42.990 ,7,1,0.,24.0,0.,24.0
1979-07-29 19:19:06.990 ,7,0,0.,24.0,0.,24.0
1979-07-29 19:19:30.990 ,6,1,0.,24.0,0.,24.0
1979-07-29 19:19:54.990 ,6,0,0.,24.0,0.,24.0
1979-07-29 19:20:18.990 ,5,1,0.,24.0,0.,24.0
1979-07-29 19:20:42.990 ,5,0,0.,24.0,0.,24.0
1979-07-29 19:21:06.990 ,4,1,0.,24.0,0.,24.0
1979-07-29 19:21:30.990 ,4,0,0.,24.0,0.,24.0
1979-07-29 19:21:54.990 ,3,1,0.,24.0,0.,24.0
1979-07-29 19:22:18.990 ,3,0,0.,24.0,0.,24.0
1979-07-29 19:22:42.990 ,2,1,0.,24.0,0.,24.0
1979-07-29 19:23:06.990 ,2,0,0.,24.0,0.,24.0
1979-07-29 19:23:30.990 ,1,1,0.,24.0,0.,24.0
1979-07-29 19:23:54.990 ,1,0,0.,24.0,0.,24.0
1979-07-29 19:24:18.990 ,0,1,0.,24.0,0.,24.0
1979-07-29 19:24:42.990 ,0,0,0.,24.0,0.,24.0
1979-07-29 19:25:06.990 ,0,1,0.,24.0,0.,24.0
1979-07-29 19:25:30.990 ,0,0,0.,24.0,0.,24.0
1979-07-29 19:25:54.990 ,1,1,0.,24.0,0.,24.0
1979-07-29 19:26:18.990 ,1,0,0.,24.0,0.,24.0
1979-07-29 19:26:42.990 ,2,1,0.,24.0,0.,24.0
1979-07-29 19:27:06.990 ,2,0,0.,24.0,0.,24.0
1979-07-29 19:27:30.990 ,3,1,0.,24.0,0.,24.0
1979-07-29 19:27:54.990 ,3,0,0.,24.0,0.,24.0
1979-07-29 19:28:18.990 ,4,1,0.,24.0,0.,24.0
1979-07-29 19:28:42.990 ,4,0,0.,24.0,0.,24.0
1979-07-29 19:29:06.990 ,5,1,0.,24.0,0.,24.0
1979-07-29 19:29:30.990 ,5,0,0.,24.0,0.,24.0
1979-07-29 19:29:54.990 ,6,1,0.,24.0,0.,24.0
1979-07-29 19:30:18.990 ,6,0,0.,24.0,0.,24.0
1979-07-29 19:30:42.990 ,7,0,0.,24.0,0.,24.0
1979-07-29 19:31:06.990 ,7,0,0.,24.0,0.,24.0
1979-07-29 19:31:30.990 ,3,1,0.,24.0,0.,24.0
1979-07-29 19:31:54.990 ,0,1,0.,24.0,0.,24.0
1979-07-29 19:32:18.990 ,4,1,0.,24.0,0.,24.0
1979-07-29 19:32:42.990 ,7,1,0.,24.0,0.,24.0
1979-07-29 19:33:06.990 ,3,1,0.,24.0,0.,24.0
1979-07-29 19:33:30.990 ,0,1,0.,24.0,0.,24.0
1979-07-29 19:33:54.990 ,4,1,0.,24.0,0.,24.0
1979-07-29 19:34:18.990 ,7,1,0.,24.0,0.,24.0
1979-07-29 19:34:42.990 ,3,1,0.,24.0,0.,24.0
1979-07-29 19:35:06.990 ,0,1,0.,24.0,0.,24.0
1979-07-29 19:35:30.990 ,4,1,0.,24.0,0.,24.0
1979-07-29 19:35:54.990 ,7,1,0.,24.0,0.,24.0
1979-07-29 19:36:18.990 ,3,1,0.,24.0,0.,24.0
1979-07-29 19:36:42.990 ,0,1,0.,24.0,0.,24.0
1979-07-29 19:37:06.990 ,4,1,0.,24.0,0.,24.0
1979-07-29 19:37:30.990 ,7,1,0.,24.0,0.,24.0
1979-07-29 19:37:54.990 ,3,1,0.,24.0,0.,24.0
1979-07-29 19:38:18.990 ,0,1,0.,24.0,0.,24.0
1979-07-29 19:38:42.990 ,4,1,0.,24.0,0.,24.0
1979-07-29 19:39:06.990 ,7,1,0.,24.0,0.,24.0
1979-07-29 19:39:30.990 ,3,1,0.,24.0,0.,24.0
1979-07-29 19:39:54.990 ,0,1,0.,24.0,0.,24.0
1979-07-29 19:40:18.990 ,4,1,0.,24.0,0.,24.0
1979-07-29 19:40:42.990 ,7,1,0.,24.0,0.,24.0
1979-07-29 19:41:06.990 ,3,1,0.,24.0,0.,24.0
1979-07-29 19:41:30.990 ,0,1,0.,24.0,0.,24.0
1979-07-29 19:41:54.990 ,0,0,0.,24.0,0.,24.0
1979-07-29 19:42:18.990 ,0,0,0.,24.0,0.,24.0
1979-07-29 19:42:42.990 ,5,1,0.,24.0,0.,24.0
1979-07-29 19:43:06.990 ,5,0,0.,24.0,0.,24.0
1979-07-29 19:43:30.990 ,4,1,0.,24.0,0.,24.0
1979-07-29 19:43:54.990 ,4,0,0.,24.0,0.,24.0
1979-07-29 19:44:18.990 ,3,1,0.,24.0,0.,24.0
1979-07-29 19:44:42.990 ,3,0,0.,24.0,0.,24.0
1979-07-29 19:45:06.990 ,2,1,0.,24.0,0.,24.0
1979-07-29 19:45:30.990 ,2,0,0.,24.0,0.,24.0
1979-07-29 19:45:54.990 ,1,1,0.,24.0,0.,24.0
1979-07-29 19:46:18.990 ,1,0,0.,24.0,0.,24.0
1979-07-29 19:46:42.990 ,0,1,0.,24.0,0.,24.0
1979-07-29 19:47:06.990 ,0,0,0.,24.0,0.,24.0
1979-07-29 19:47:30.990 ,0,1,0.,24.0,0.,24.0
1979-07-29 19:47:54.990 ,0,0,0.,24.0,0.,24.0
1979-07-29 19:48:18.990 ,1,1,0.,24.0,0.,24.0
1979-07-29 19:48:42.990 ,1,0,0.,24.0,0.,24.0
1979-07-29 19:49:06.990 ,2,1,0.,24.0,0.,24.0
1979-07-29 19:49:30.990 ,2,0,0.,24.0,0.,24.0
1979-07-29 19:49:54.990 ,3,1,0.,24.0,0.,24.0
1979-07-29 19:50:18.990 ,3,0,0.,24.0,0.,24.0
1979-07-29 19:50:42.990 ,4,1,0.,24.0,0.,24.0
1979-07-29 19:51:06.990 ,4,0,0.,24.0,0.,24.0
1979-07-29 19:51:30.990 ,5,1,0.,24.0,0.,24.0
1979-07-29 19:51:54.990 ,5,0,0.,24.0,0.,24.0
1979-07-29 19:52:18.990 ,6,1,0.,24.0,0.,24.0
1979-07-29 19:52:42.990 ,6,0,0.,24.0,0.,24.0
1979-07-29 19:53:06.990 ,7,1,0.,24.0,0.,24.0
1979-07-29 19:53:30.990 ,7,0,0.,24.0,0.,24.0
1979-07-29 19:53:54.990 ,7,1,0.,24.0,0.,24.0
1979-07-29 19:54:18.990 ,7,0,0.,24.0,0.,24.0
1979-07-29 19:54:42.990 ,6,1,0.,24.0,0.,24.0
1979-07-29 19:55:06.990 ,6,0,0.,24.0,0.,24.0
1979-07-29 19:55:30.990 ,5,1,0.,24.0,0.,24.0
1979-07-29 19:55:54.990 ,0,0,,0,,0
1979-07-29 19:59:00.390 ,0,0,0.,24.0,0.,24.0
1979-07-29 19:59:06.990 ,0,0,0.,24.0,0.,24.0
1979-07-29 19:59:30.990 ,0,1,0.,24.0,0.,24.0
1979-07-29 19:59:54.990 ,0,0,0.,24.0,0.,24.0
1979-07-29 20:00:18.990 ,0,1,0.,24.0,0.,24.0
1979-07-29 20:00:42.990 ,0,0,0.,24.0,0.,24.0
1979-07-29 20:01:06.990 ,1,1,0.,24.0,0.,24.0
1979-07-29 20:01:30.990 ,1,0,0.,24.0,0.,24.0
1979-07-29 20:01:54.990 ,2,1,0.,24.0,0.,24.0
1979-07-29 20:02:18.990 ,2,0,0.,24.0,0.,24.0
1979-07-29 20:02:42.990 ,3,1,0.,24.0,0.,24.0
1979-07-29 20:03:06.990 ,3,0,0.,24.0,0.,24.0
1979-07-29 20:03:30.990 ,4,1,0.,24.0,0.,24.0
1979-07-29 20:03:54.990 ,4,0,0.,24.0,0.,24.0
1979-07-29 20:04:18.990 ,5,1,0.,24.0,0.,24.0
1979-07-29 20:04:42.990 ,5,0,0.,24.0,0.,24.0
1979-07-29 20:05:06.990 ,6,1,0.,24.0,0.,24.0
1979-07-29 20:05:30.990 ,6,0,0.,24.0,0.,24.0
1979-07-29 20:05:54.990 ,7,1,0.,24.0,0.,24.0
1979-07-29 20:06:18.990 ,7,0,0.,24.0,0.,24.0
1979-07-29 20:06:42.990 ,7,1,0.,24.0,0.,24.0
1979-07-29 20:07:06.990 ,7,0,0.,24.0,0.,24.0
1979-07-29 20:07:30.990 ,6,1,0.,24.0,0.,24.0
1979-07-29 20:07:54.990 ,6,0,0.,24.0,0.,24.0
1979-07-29 20:08:18.990 ,5,1,0.,24.0,0.,24.0
1979-07-29 20:08:42.990 ,5,0,0.,24.0,0.,24.0
1979-07-29 20:09:06.990 ,4,1,0.,24.0,0.,24.0
1979-07-29 20:09:30.990 ,4,0,0.,24.0,0.,24.0
1979-07-29 20:09:54.990 ,3,1,0.,24.0,0.,24.0
1979-07-29 20:10:18.990 ,3,0,0.,24.0,0.,24.0
1979-07-29 20:10:42.990 ,2,1,0.,24.0,0.,24.0
1979-07-29 20:11:06.990 ,2,0,0.,24.0,0.,24.0
1979-07-29 20:11:30.990 ,1,1,0.,24.0,0.,24.0
1979-07-29 20:11:54.990 ,1,0,0.,24.0,0.,24.0
1979-07-29 20:12:18.990 ,0,1,0.,24.0,0.,24.0
1979-07-29 20:12:42.990 ,0,0,0.,24.0,0.,24.0
1979-07-29 20:13:06.990 ,0,1,0.,24.0,0.,24.0
1979-07-29 20:13:30.990 ,0,0,0.,24.0,0.,24.0
1979-07-29 20:13:54.990 ,1,1,0.,24.0,0.,24.0
1979-07-29 20:14:18.990 ,1,0,0.,24.0,0.,24.0
1979-07-29 20:14:42.990 ,2,1,0.,24.0,0.,24.0
1979-07-29 20:15:06.990 ,2,0,0.,24.0,0.,24.0
1979-07-29 20:15:30.990 ,3,1,0.,24.0,0.,24.0
1979-07-29 20:15:54.990 ,3,0,0.,24.0,0.,24.0
1979-07-29 20:16:18.990 ,4,1,0.,24.0,0.,24.0
1979-07-29 20:16:42.990 ,4,0,0.,24.0,0.,24.0
1979-07-29 20:17:06.990 ,5,1,0.,24.0,0.,24.0
1979-07-29 20:17:30.990 ,5,0,0.,24.0,0.,24.0
1979-07-29 20:17:54.990 ,6,1,0.,24.0,0.,24.0
1979-07-29 20:18:18.990 ,6,0,0.,24.0,0.,24.0
1979-07-29 20:18:42.990 ,7,0,0.,24.0,0.,24.0
1979-07-29 20:19:06.990 ,7,0,0.,24.0,0.,24.0
1979-07-29 20:19:30.990 ,3,1,0.,24.0,0.,24.0
1979-07-29 20:19:54.990 ,0,1,0.,24.0,0.,24.0
1979-07-29 20:20:18.990 ,4,1,0.,24.0,0.,24.0
1979-07-29 20:20:42.990 ,7,1,0.,24.0,0.,24.0
1979-07-29 20:21:06.990 ,3,1,0.,24.0,0.,24.0
1979-07-29 20:21:30.990 ,0,1,0.,24.0,0.,24.0
1979-07-29 20:21:54.990 ,4,1,0.,24.0,0.,24.0
1979-07-29 20:22:18.990 ,7,1,0.,24.0,0.,24.0
1979-07-29 20:22:42.990 ,3,1,0.,24.0,0.,24.0
1979-07-29 20:23:06.990 ,0,1,0.,24.0,0.,24.0
1979-07-29 20:23:30.990 ,4,1,0.,24.0,0.,24.0
1979-07-29 20:23:54.990 ,7,1,1.,24.0,0.,24.0
1979-07-29 20:24:18.990 ,3,1,0.,24.0,0.,24.0
1979-07-29 20:24:42.990 ,0,1,0.,24.0,0.,24.0
1979-07-29 20:25:06.980 ,4,1,0.,24.0,0.,24.0
1979-07-29 20:25:30.980 ,7,1,0.,24.0,0.,24.0
1979-07-29 20:25:54.980 ,3,1,0.,24.0,0.,24.0
1979-07-29 20:26:18.980 ,0,1,0.,24.0,0.,24.0
1979-07-29 20:26:42.980 ,4,1,0.,24.0,0.,24.0
1979-07-29 20:27:06.980 ,7,1,0.,24.0,0.,24.0
1979-07-29 20:27:30.980 ,3,1,0.,24.0,0.,24.0
1979-07-29 20:27:54.980 ,0,1,0.,24.0,0.,24.0
1979-07-29 20:28:18.980 ,4,1,0.,24.0,0.,24.0
1979-07-29 20:28:42.980 ,7,1,0.,24.0,0.,24.0
1979-07-29 20:29:06.980 ,3,1,0.,24.0,0.,24.0
1979-07-29 20:29:30.980 ,0,1,0.,24.0,0.,24.0
1979-07-29 20:29:54.980 ,0,0,0.,24.0,0.,24.0
1979-07-29 20:30:18.980 ,0,0,0.,24.0,0.,24.0
1979-07-29 20:30:42.980 ,5,1,0.,24.0,0.,24.0
1979-07-29 20:31:06.980 ,5,0,0.,24.0,0.,24.0
1979-07-29 20:31:30.980 ,4,1,0.,24.0,0.,24.0
1979-07-29 20:31:54.980 ,4,0,0.,24.0,0.,24.0
1979-07-29 20:32:18.980 ,3,1,0.,24.0,0.,24.0
1979-07-29 20:32:42.980 ,3,0,0.,24.0,0.,24.0
1979-07-29 20:33:06.980 ,2,1,0.,24.0,0.,24.0
1979-07-29 20:33:30.980 ,2,0,0.,24.0,0.,24.0
1979-07-29 20:33:54.980 ,1,1,0.,24.0,0.,24.0
1979-07-29 20:34:18.980 ,1,0,0.,24.0,0.,24.0
1979-07-29 20:34:42.980 ,0,1,0.,24.0,0.,24.0
1979-07-29 20:35:06.980 ,0,0,0.,24.0,0.,24.0
1979-07-29 20:35:30.980 ,0,1,0.,24.0,0.,24.0
1979-07-29 20:35:54.980 ,0,0,0.,24.0,0.,24.0
1979-07-29 20:36:18.980 ,1,1,0.,24.0,0.,24.0
1979-07-29 20:36:42.980 ,1,0,0.,24.0,0.,24.0
1979-07-29 20:37:06.980 ,2,1,0.,24.0,0.,24.0
1979-07-29 20:37:30.980 ,2,0,0.,24.0,0.,24.0
1979-07-29 20:37:54.980 ,3,1,0.,24.0,0.,24.0
1979-07-29 20:38:18.980 ,3,0,0.,24.0,0.,24.0
1979-07-29 20:38:42.980 ,4,1,0.,24.0,0.,24.0
1979-07-29 20:39:06.980 ,4,0,0.,24.0,0.,24.0
1979-07-29 20:39:30.980 ,5,1,0.,24.0,0.,24.0
1979-07-29 20:39:54.980 ,5,0,0.,24.0,0.,24.0
1979-07-29 20:40:18.980 ,6,1,0.,24.0,0.,24.0
1979-07-29 20:40:42.980 ,6,0,0.,24.0,0.,24.0
1979-07-29 20:41:06.980 ,7,1,0.,24.0,0.,24.0
1979-07-29 20:41:30.980 ,7,0,0.,24.0,0.,24.0
1979-07-29 20:41:54.980 ,7,1,0.,24.0,0.,24.0
1979-07-29 20:42:18.980 ,7,0,0.,24.0,0.,24.0
1979-07-29 20:42:42.980 ,0,0,,0,,0
1979-07-29 20:43:06.980 ,0,0,0.,24.0,0.,24.0
1979-07-29 20:43:30.980 ,5,1,0.,24.0,0.,24.0
1979-07-29 20:43:54.980 ,5,0,0.,24.0,0.,24.0
1979-07-29 20:44:18.980 ,4,1,0.,24.0,0.,24.0
1979-07-29 20:44:42.980 ,4,0,0.,24.0,0.,24.0
1979-07-29 20:45:06.980 ,3,1,0.,24.0,0.,24.0
1979-07-29 20:45:30.980 ,3,0,0.,24.0,0.,24.0
1979-07-29 20:45:54.980 ,2,1,0.,24.0,0.,24.0
1979-07-29 20:46:18.980 ,2,0,0.,24.0,0.,24.0
1979-07-29 20:46:42.980 ,1,1,0.,24.0,0.,24.0
1979-07-29 20:47:06.980 ,1,0,0.,24.0,0.,24.0
1979-07-29 20:47:30.980 ,0,1,0.,24.0,0.,24.0
1979-07-29 20:47:54.980 ,0,0,0.,24.0,0.,24.0
1979-07-29 20:48:18.980 ,0,1,0.,24.0,0.,24.0
1979-07-29 20:48:42.980 ,0,0,0.,24.0,0.,24.0
1979-07-29 20:49:06.980 ,1,1,0.,24.0,0.,24.0
1979-07-29 20:49:30.980 ,1,0,0.,24.0,0.,24.0
1979-07-29 20:49:54.980 ,2,1,0.,24.0,0.,24.0
1979-07-29 20:50:18.980 ,2,0,0.,24.0,0.,24.0
1979-07-29 20:50:42.980 ,3,1,0.,24.0,0.,24.0
1979-07-29 20:51:06.980 ,3,0,0.,24.0,0.,24.0
1979-07-29 20:51:30.980 ,4,1,0.,24.0,0.,24.0
1979-07-29 20:51:54.980 ,4,0,0.,24.0,0.,24.0
1979-07-29 20:52:18.980 ,5,1,0.,24.0,0.,24.0
1979-07-29 20:52:42.980 ,5,0,0.,24.0,0.,24.0
1979-07-29 20:53:06.980 ,6,1,0.,24.0,0.,24.0
1979-07-29 20:53:30.980 ,6,0,0.,24.0,0.,24.0
1979-07-29 20:53:54.980 ,7,1,0.,24.0,0.,24.0
1979-07-29 20:54:18.980 ,7,0,0.,24.0,0.,24.0
1979-07-29 20:54:42.980 ,7,1,0.,24.0,0.,24.0
1979-07-29 20:55:06.980 ,7,0,0.,24.0,0.,24.0
1979-07-29 20:55:30.980 ,6,1,0.,24.0,0.,24.0
1979-07-29 20:55:54.980 ,6,0,0.,24.0,0.,24.0
1979-07-29 20:56:18.980 ,5,1,0.,24.0,0.,24.0
1979-07-29 20:56:42.980 ,5,0,0.,24.0,0.,24.0
1979-07-29 20:57:06.980 ,4,1,0.,24.0,0.,24.0
1979-07-29 20:57:30.980 ,4,0,0.,24.0,0.,24.0
1979-07-29 20:57:54.980 ,3,1,0.,24.0,0.,24.0
1979-07-29 20:58:18.980 ,3,0,0.,24.0,0.,24.0
1979-07-29 20:58:42.980 ,2,1,0.,24.0,0.,24.0
1979-07-29 20:59:06.980 ,2,0,0.,24.0,0.,24.0
1979-07-29 20:59:30.980 ,1,1,0.,24.0,0.,24.0
1979-07-29 20:59:54.980 ,1,0,0.,24.0,0.,24.0
1979-07-29 21:00:18.980 ,0,1,0.,24.0,0.,24.0
